Regional Weather Roundup
Issued by NWS Sioux Falls, SD

Home | Current Version | Previous Version | Text Only | Print | Product List | Glossary Off
Versions: 1 2 3 4 5 6 7 8 9 10 11 12 13 14 15 16 17 18 19 20 21 22 23 24 25 26 27 28 29 30 31 32 33 34 35 36 37 38 39 40 41 42 43 44 45 46 47 48 49 50

000
ASUS43 KFSD 240510
RWRFSD

WEATHER ROUNDUP FOR SE SOUTH DAKOTA/SW MINNESOTA/NW IOWA
NATIONAL WEATHER SERVICE SIOUX FALLS SD
1200 AM CDT MON JUL 24 2017

NOTE: "FAIR" INDICATES FEW OR NO CLOUDS BELOW 12,000 FEET WITH NO
SIGNIFICANT WEATHER AND OR OBSTRUCTIONS TO VISIBILITY.


SDZ038>040-050-052>070-240600-
SOUTHEAST SOUTH DAKOTA

CITY           SKY/WX    TMP DP  RH WIND       PRES   REMARKS
BROOKINGS      CLEAR     63  59  87 E3        30.04S
CHAMBERLAIN    CLEAR     68  59  73 E6        29.99F
HURON          CLEAR     67  62  84 SE8       30.00S
MADISON        FAIR      61  61 100 SE3       30.04S
MITCHELL       CLEAR     65  61  87 SE7       30.01R
SIOUX FALLS    CLEAR     63  59  87 NE6       30.03R
WINNER         FAIR      70  57  63 SE13      30.01R
YANKTON        CLEAR     66  61  84 E7        30.02
$$

MNZ071-072-080-081-089-090-097-098-240600-
SOUTHWEST MINNESOTA

CITY           SKY/WX    TMP DP  RH WIND       PRES   REMARKS
FAIRMONT       CLOUDY    65  63  93 NE3       30.03R
JACKSON        PTCLDY    61  59  94 CALM      30.03S
LUVERNE        CLEAR     59  55  88 CALM      30.04R
MARSHALL       CLEAR     61  59  93 NW6       30.03
MONTEVIDEO     PTCLDY    64  57  77 NE3       30.03R
PIPESTONE      CLEAR     64  57  77 CALM      30.04R
REDWOOD FALLS  MOCLDY    67  60  78 E3        30.02R
WINDOM         CLEAR     63  59  88 N5        30.03R
WORTHINGTON    CLEAR     59  57  93 NW3       30.04S
$$

IAZ001>003-012>014-020>022-031-032-NEZ013-014-SDZ071-240600-
NORTHWEST IOWA

CITY           SKY/WX    TMP DP  RH WIND       PRES   REMARKS
DENISON        CLEAR     64  61  88 CALM      30.03R
ESTHERVILLE    CLEAR     60  59  96 NW5       30.01R
ORANGE CITY    CLEAR     66  61  82 NE5       30.03R
SHELDON        CLEAR     59  57  94 CALM      30.02R
SIOUX CITY     CLEAR     68  62  81 E6        30.01R
SPENCER        CLEAR     59  58  96 NW3       30.02R
STORM LAKE     CLEAR     63  57  82 N5        30.03R
$$

ABBREVIATIONS USED IN REMARKS
   TC - TEMPERATURE IN CELSIUS
  WCI - WIND CHILL INDEX
   HX - HEAT INDEX
  VSB - VISIBILITY





USA.gov is the U.S. government's official web portal to all federal, state and local government web resources and services.